Wind_Speed
12 12 12 11 11 10 9 8 7 7 7 6 6 5 5 5 5 6 6 6 6 6 6 6 6 6 6 6 5 4 4 3 3 3 4 4 6 6 4 4 4 3 3 3 3 4 5 6 7 8 9 9 7 4 4 7 14 14 13 14 15 18 18 16 14 12 13 12 12 18 24 24 26 25 21 16 10 4 8 10 11 11 13 16 17 21 19 13
13 12 12 12 11 11 10 9 8 7 7 6 6 5 5 5 5 6 6 6 6 6 5 6 6 6 6 5 4 3 1 1 1 1 3 5 6 4 2 3 3 3 3 3 3 3 4 6 8 8 10 11 10 6 4 2 9 12 11 13 13 13 15 14 12 12 14 15 18 23 24 23 23 21 19 15 7 6 2 5 4 4 7 8 10 14 15 16
12 12 12 12 12 11 10 9 8 7 7 7 7 6 6 6 6 6 6 6 5 5 5 5 5 5 5 4 3 1 3 3 2 1 2 3 2 2 3 3 4 4 5 5 4 4 3 6 7 7 9 11 9 5 4 3 6 9 10 13 11 9 9 11 11 13 17 18 20 23 24 22 21 19 16 12 3 9 14 14 8 5 3 2 3 3 8 17
12 12 12 12 12 11 10 9 8 7 7 7 7 7 6 7 6 7 6 5 5 5 5 5 5 5 5 4 1 3 5 4 5 2 1 2 3 3 4 4 5 6 6 6 6 6 6 5 5 8 9 9 8 5 4 2 3 8 12 12 10 8 8 10 11 14 18 19 19 21 24 24 22 19 13 9 7 3 16 14 8 9 6 4 5 2 4 7
13 13 12 12 12 12 11 10 9 8 7 7 7 7 7 7 7 7 6 5 5 5 6 5 6 5 5 4 1 3 4 3 6 2 3 5 4 3 3 4 5 6 7 9 10 11 10 10 8 7 6 7 6 2 2 5 8 10 14 14 12 10 10 11 12 16 18 20 21 20 24 26 24 21 13 8 7 1 13 13 9 10 10 8 6 4 6 4
14 14 13 12 12 12 11 11 10 9 8 8 7 7 7 7 7 6 5 5 5 5 6 6 6 5 4 4 2 1 2 2 5 2 5 7 5 3 3 4 5 6 9 12 15 15 12 9 7 3 1 3 2 3 4 6 10 14 14 13 12 10 12 13 16 18 18 20 22 22 24 27 26 24 18 12 7 4 10 11 9 9 13 10 4 4 4 4
15 15 14 13 12 12 11 11 11 10 9 8 7 7 7 7 7 6 5 5 5 5 5 5 5 4 4 3 3 3 2 1 5 2 6 8 4 3 3 4 4 7 12 14 14 15 12 7 4 2 1 1 4 3 2 4 5 8 11 8 8 10 12 14 16 16 16 19 19 21 23 26 28 26 23 19 10 8 12 8 6 8 12 10 3 4 4 5
16 16 15 14 13 12 12 11 11 10 9 8 8 7 7 7 7 6 5 5 5 5 5 5 4 3 3 2 4 6 4 2 5 5 7 7 4 3 3 3 3 8 12 12 11 12 10 6 5 5 5 4 6 4 2 4 2 2 8 8 8 11 13 14 14 13 14 16 18 20 20 23 25 22 21 22 17 15 15 7 5 5 6 8 7 6 6 5
18 17 16 15 14 13 12 12 11 10 9 8 7 7 6 6 6 5 4 4 5 5 5 4 2 2 1 3 5 7 7 3 5 7 7 5 4 4 3 3 2 6 8 9 11 11 8 7 9 7 7 6 7 7 2 4 4 4 7 10 11 12 14 15 14 13 13 14 16 18 18 20 21 18 17 18 20 20 15 7 3 5 5 7 9 6 5 4
18 19 18 17 15 14 13 12 11 10 9 8 7 6 6 6 6 5 4 4 4 5 5 3 2 2 1 3 6 8 8 5 7 7 4 2 3 5 5 3 2 2 4 10 13 9 7 10 10 7 8 6 6 7 3 3 4 6 8 11 14 16 19 19 18 17 16 15 15 15 15 16 15 16 17 15 16 17 15 16 13 3 6 5 4 3 3 4
18 19 19 19 17 16 14 13 12 11 9 8 7 6 6 5 5 5 4 4 4 4 4 2 2 2 0 3 6 9 10 9 8 6 3 2 2 4 5 4 2 1 2 6 8 6 6 10 9 7 8 6 6 8 4 3 2 6 7 8 9 13 16 17 17 16 14 13 11 11 14 15 14 15 16 13 10 9 9 15 19 9 2 3 3 3 1 2
18 18 19 19 19 17 16 14 12 11 10 8 7 6 5 5 4 4 4 3 4 4 3 2 2 2 2 2 4 9 10 11 9 4 3 3 4 5 4 3 3 3 2 3 4 4 2 5 6 7 9 6 6 7 5 3 2 4 6 8 7 8 9 7 10 10 12 13 9 9 13 15 14 14 13 11 8 3 2 6 13 11 4 2 1 1 2 2
17 18 18 19 19 19 18 16 14 12 11 9 7 6 5 4 4 4 3 3 3 3 1 0 2 2 3 3 4 8 10 11 7 4 4 1 3 4 4 3 4 4 3 3 4 6 3 2 4 8 10 5 4 4 2 2 2 4 5 9 10 12 11 9 11 8 9 12 6 6 12 15 12 12 11 8 7 4 3 3 6 8 6 4 2 1 2 2
17 17 18 18 19 19 19 18 16 13 11 10 7 6 5 4 4 3 3 3 3 1 2 2 2 0 2 0 5 9 11 11 7 7 8 5 2 3 4 4 5 6 5 2 2 5 4 2 3 8 8 4 3 2 2 3 1 4 6 10 11 14 15 10 8 8 4 9 6 7 12 16 13 10 7 3 5 4 4 5 5 8 8 2 1 1 3 3
17 18 18 18 18 19 19 18 17 15 12 10 7 5 4 4 3 3 2 3 2 1 1 0 1 2 3 2 5 8 9 10 8 8 12 11 4 5 4 4 6 6 6 6 6 6 5 2 1 5 5 3 3 1 3 2 2 5 8 9 8 11 14 10 6 9 6 7 7 8 11 13 10 8 10 2 3 3 5 8 7 9 11 9 5 3 3 2
17 17 18 18 18 18 19 18 17 16 13 10 7 6 5 4 3 2 1 1 1 1 1 2 2 4 4 3 5 8 7 6 8 9 13 13 5 7 5 1 3 4 7 9 9 8 6 5 6 5 3 2 2 3 6 6 7 7 8 11 11 11 12 10 8 10 8 6 8 9 10 8 2 6 8 3 3 5 6 8 9 10 11 11 10 9 7 3
17 17 18 18 18 18 18 18 17 16 14 11 9 7 7 6 6 4 4 4 2 2 3 3 2 3 4 6 8 8 6 5 9 11 12 14 8 7 6 3 4 5 10 9 7 6 5 5 6 2 0 2 3 5 7 7 7 8 8 11 13 11 11 12 11 11 8 8 9 10 10 7 3 1 3 6 7 8 9 8 9 12 12 11 13 13 11 9
17 17 17 17 18 18 18 18 17 16 15 13 11 10 8 7 8 8 9 7 6 6 6 6 4 2 1 5 9 6 5 6 10 13 14 15 8 4 4 3 6 7 8 5 4 4 2 1 1 3 3 4 5 8 11 9 7 8 8 9 10 10 11 12 12 12 11 12 9 9 12 12 8 6 6 7 8 9 10 10 13 14 12 11 13 14 13 12
17 17 17 17 17 18 18 17 17 16 15 14 14 12 8 7 9 11 12 9 6 7 7 8 7 4 3 2 7 6 6 6 10 12 11 9 1 4 4 2 5 7 6 4 1 0 3 4 7 7 3 3 5 7 10 7 7 9 9 10 10 11 11 12 13 12 9 11 9 9 14 14 11 8 9 10 7 7 10 13 16 14 11 11 13 14 13 13
18 17 17 17 17 17 17 17 17 16 16 15 16 13 9 8 8 10 11 10 8 8 9 10 10 7 6 2 6 8 10 12 13 9 3 0 3 4 2 2 2 6 7 3 2 5 8 10 13 9 2 2 3 3 5 6 8 11 12 13 12 13 13 11 12 11 6 8 9 10 11 12 12 12 12 11 8 6 11 15 16 15 13 15 16 15 15 15
17 17 17 17 16 16 17 17 17 16 16 17 16 13 11 11 10 11 10 7 8 11 10 11 11 8 4 1 2 5 10 14 14 9 3 1 0 1 1 2 3 6 7 4 9 11 13 16 15 9 3 4 3 5 9 10 11 11 10 13 12 11 12 10 10 11 11 11 10 10 9 10 11 12 12 12 12 10 11 16 18 17 18 19 19 17 17 17
17 17 17 17 16 16 16 17 17 17 17 16 14 12 13 13 13 15 14 7 4 10 11 9 10 6 1 2 2 3 8 9 6 8 6 2 2 3 5 7 7 9 9 9 12 13 15 18 16 13 11 9 8 11 14 14 12 9 8 14 16 12 11 12 11 12 15 14 11 11 12 11 9 9 10 11 13 13 12 15 19 21 22 22 19 18 18 18
17 16 16 16 16 16 16 16 16 16 17 16 14 12 13 13 13 14 16 14 5 7 10 6 6 3 2 1 2 3 7 6 4 6 6 4 5 9 11 11 10 12 12 10 11 12 15 15 13 13 16 14 13 13 13 11 9 8 11 15 16 13 11 12 11 11 12 10 9 11 13 13 11 9 10 10 12 15 14 14 19 22 23 21 18 16 16 18
17 16 15 15 16 16 16 16 16 15 16 16 15 15 15 15 15 14 14 17 9 4 7 3 4 4 3 3 3 3 6 6 5 6 5 5 8 11 12 13 13 13 11 9 10 13 14 12 8 7 9 13 12 8 7 8 8 10 10 6 4 5 6 7 7 8 9 8 7 9 11 12 14 12 10 9 10 12 15 17 19 21 22 20 18 18 18 18
16 16 15 14 14 15 16 15 15 15 16 16 16 17 17 16 17 15 13 16 11 3 4 2 5 4 3 4 4 5 7 8 6 6 6 7 10 12 14 16 18 14 11 8 9 12 11 6 5 6 6 9 9 7 6 7 9 11 7 3 3 3 5 7 8 9 9 8 8 9 8 8 12 12 9 8 10 14 16 19 19 19 19 19 17 18 19 19
15 15 16 15 14 14 15 14 13 14 15 15 16 17 17 17 15 13 11 13 9 1 4 4 6 3 2 3 4 8 10 8 4 7 8 10 12 14 14 14 13 12 10 6 8 9 8 7 9 10 8 7 7 7 8 6 8 10 8 6 7 7 8 10 11 10 7 7 7 9 8 7 9 12 12 11 14 19 19 19 19 18 17 17 17 18 19 19
15 14 16 16 15 14 14 14 13 13 14 14 16 16 15 15 13 10 8 7 6 2 3 5 8 5 2 3 5 8 8 6 4 7 9 10 12 14 13 10 8 11 7 5 8 6 6 9 8 7 8 7 4 5 5 6 8 7 6 7 10 11 12 11 10 9 9 11 11 9 10 11 11 12 13 13 17 21 19 18 18 19 19 19 20 19 18 17
16 15 15 16 16 16 15 14 13 13 14 14 15 15 14 13 10 7 4 2 4 3 1 3 6 6 5 5 6 7 7 7 5 5 6 7 9 10 9 6 8 12 8 7 10 6 5 9 7 4 6 6 6 6 5 7 9 8 7 9 12 12 11 10 10 11 12 12 13 11 10 9 9 11 11 12 18 21 19 18 18 18 19 18 18 18 18 17
17 16 15 15 16 16 16 15 14 14 14 15 15 14 13 12 7 4 2 1 3 4 2 2 4 5 5 6 6 7 7 7 5 5 7 8 7 5 4 3 6 10 9 8 12 10 6 9 9 8 9 7 8 9 10 11 10 9 11 11 10 8 9 11 13 14 12 10 14 14 10 7 5 10 14 15 20 21 19 18 17 17 17 17 17 17 18 18
19 19 17 15 16 15 15 16 16 15 15 15 14 13 13 10 4 1 1 0 3 3 0 0 2 3 3 4 6 7 6 6 5 6 9 9 6 5 4 4 4 6 6 5 8 11 11 11 11 9 9 9 10 12 13 15 13 11 11 11 10 9 11 13 14 13 7 6 12 13 12 10 5 10 16 18 21 23 22 21 19 19 19 17 17 17 17 18
20 20 18 17 16 16 16 16 16 16 16 15 14 13 11 8 3 1 1 2 3 1 1 1 1 2 3 5 9 9 6 5 6 8 10 9 8 9 9 7 6 7 8 5 5 9 10 11 13 11 9 9 11 10 8 10 10 8 7 8 10 9 8 9 8 6 2 3 7 6 8 10 8 11 16 17 19 22 23 23 21 20 19 18 16 16 17 17
19 19 18 17 16 16 15 15 16 16 15 14 13 11 10 6 3 2 4 5 2 2 1 1 2 3 5 7 9 9 7 6 8 9 11 11 10 10 9 10 10 10 9 7 7 10 10 9 9 11 10 10 11 7 3 4 5 4 3 3 5 4 3 3 3 2 3 4 4 4 5 8 11 13 14 14 18 20 20 22 22 21 20 19 17 16 17 18
20 18 16 15 14 13 13 13 14 14 13 12 11 10 9 4 2 1 7 7 2 2 3 3 4 5 8 9 7 4 6 7 8 9 10 11 11 10 9 11 13 13 11 9 8 9 7 7 6 7 9 9 9 7 3 4 4 5 5 3 3 1 1 2 3 2 3 5 6 6 6 7 9 11 10 12 15 17 19 21 21 20 20 20 19 18 18 18
19 19 17 14 13 12 11 12 12 11 11 11 10 9 8 3 2 2 6 6 6 8 8 8 8 9 11 10 6 5 7 6 5 6 8 9 9 9 8 11 11 13 12 8 6 4 3 4 2 3 4 5 8 10 8 7 7 8 8 4 2 3 2 2 3 1 4 8 10 7 5 4 5 6 10 12 13 15 17 18 18 18 18 19 20 19 19 18
18 18 17 15 14 12 10 10 10 10 10 11 10 9 7 3 2 3 6 6 8 11 11 10 9 8 6 3 4 6 8 5 3 4 6 7 8 8 8 6 3 8 9 5 3 2 2 4 3 3 2 2 7 11 11 10 9 7 7 4 2 2 3 4 5 6 7 7 7 5 5 4 5 6 10 15 17 19 19 16 15 14 14 15 17 18 18 18
17 16 16 13 11 9 7 7 7 8 10 11 10 8 5 3 3 5 7 8 9 12 13 9 5 4 3 1 1 3 5 3 2 4 5 6 7 7 4 3 4 5 7 5 3 2 3 6 7 8 5 3 7 10 12 11 8 5 6 7 5 4 6 7 6 6 5 3 2 4 4 5 6 7 13 19 19 21 22 19 17 14 12 12 14 18 21 21
17 14 13 9 3 2 4 8 8 8 8 9 9 8 5 4 4 6 8 7 7 10 11 8 4 3 3 2 2 2 3 3 3 3 6 6 5 4 4 1 3 4 6 6 5 4 5 9 10 11 11 7 4 7 12 10 7 7 7 7 6 5 6 6 4 3 2 1 3 5 7 10 10 9 15 22 22 22 22 22 22 22 19 14 15 20 23 24
18 15 13 9 2 2 6 8 8 7 7 7 9 8 4 2 4 6 6 5 6 8 7 5 4 4 4 3 4 4 4 4 5 5 5 4 3 3 5 5 3 4 6 6 4 4 5 9 11 11 14 10 2 4 9 8 7 8 7 5 5 5 5 4 2 1 1 1 3 4 6 11 14 13 15 20 24 25 25 26 27 26 22 17 17 20 22 23
18 15 13 10 5 4 6 7 6 6 8 8 8 6 3 3 5 7 8 6 6 6 4 2 4 5 6 6 7 7 7 7 7 6 3 2 3 5 8 7 4 4 7 8 6 5 6 7 8 8 9 8 3 4 5 6 6 7 7 6 5 5 6 6 4 2 2 2 2 3 3 7 13 13 13 16 21 24 27 29 27 24 22 19 19 20 22 23
18 14 10 9 7 6 6 7 6 6 8 7 5 5 5 6 7 8 10 10 8 5 2 4 7 8 8 8 7 8 9 9 9 7 6 3 3 5 6 6 6 7 9 10 9 10 9 7 10 14 14 10 6 4 5 9 9 9 8 5 3 2 4 6 7 7 5 3 2 2 2 7 11 11 13 14 18 21 25 27 26 23 22 21 19 20 23 23
17 11 7 7 7 7 8 7 6 7 7 5 4 5 6 7 9 10 11 11 10 7 5 6 8 8 9 9 7 7 9 10 10 10 9 5 3 3 4 6 9 11 12 12 12 11 9 9 13 18 19 18 13 8 11 14 10 7 6 5 4 4 3 4 5 7 6 4 3 2 4 12 16 15 13 13 15 18 21 23 24 23 22 21 20 21 22 22
13 9 6 5 5 5 6 6 5 6 7 6 5 7 8 10 12 13 12 13 14 13 10 9 9 10 9 8 8 8 9 10 11 11 9 6 3 1 4 7 9 11 12 13 13 12 10 9 12 14 16 19 17 14 16 12 6 8 8 6 5 5 5 4 3 4 6 6 7 5 4 11 16 13 10 11 11 13 16 18 20 19 19 19 20 22 22 23
10 8 6 4 2 1 4 5 3 2 4 7 8 9 11 12 13 14 13 13 13 14 12 9 8 9 7 7 9 10 10 10 10 9 9 9 5 2 3 5 5 5 8 9 10 10 8 7 8 10 13 16 15 14 15 11 9 10 8 5 4 4 4 5 5 7 9 10 10 6 3 9 13 10 8 10 11 12 14 15 16 17 19 20 21 22 23 23
10 7 4 4 3 1 1 3 2 1 2 7 11 12 13 14 13 13 13 13 13 14 13 10 11 10 7 6 8 10 11 9 7 8 10 11 9 7 7 8 5 3 4 4 6 7 7 6 7 8 10 11 7 5 8 10 10 7 3 2 3 4 4 7 9 8 8 11 10 5 5 9 9 7 9 10 11 12 13 15 16 17 19 21 22 23 23 24
11 8 3 4 5 3 3 3 5 6 6 8 10 12 12 11 10 12 12 13 15 16 16 15 15 15 14 11 9 10 12 12 10 10 12 13 12 11 11 10 7 6 7 7 7 9 9 8 9 7 4 4 5 5 7 9 10 10 9 8 8 6 6 9 11 8 7 10 11 10 11 14 10 8 12 13 13 14 13 14 16 18 21 23 23 23 24 24
13 10 6 3 6 6 6 4 5 7 9 8 8 10 10 9 10 13 14 13 14 15 15 15 15 15 16 15 13 12 12 13 13 13 13 15 15 15 15 15 13 12 12 11 9 10 11 11 13 13 10 9 11 13 13 14 16 17 17 16 12 8 9 13 15 15 14 15 17 18 20 21 20 17 16 17 18 17 14 14 17 20 23 24 24 23 23 23
13 13 11 6 4 5 7 7 6 7 9 9 9 10 11 12 13 14 14 13 13 14 13 14 15 15 14 14 15 13 12 12 12 13 14 15 16 16 17 16 16 17 17 16 13 11 11 13 14 15 14 12 12 13 12 13 16 17 17 16 13 9 12 18 19 19 19 18 17 20 22 22 22 20 18 19 20 21 21 21 22 22 22 22 22 23 22 21
13 13 13 11 8 6 6 8 10 11 11 11 11 12 13 12 12 12 13 13 14 15 14 13 14 14 14 13 13 12 12 12 12 12 13 13 14 15 15 14 15 18 18 16 14 11 11 14 15 14 14 13 13 14 13 13 16 17 16 16 16 15 17 20 19 18 20 21 21 22 23 22 22 20 19 20 21 24 25 23 21 19 20 22 22 22 21 21
13 12 11 10 9 9 9 8 11 13 12 11 12 12 11 10 11 12 14 15 15 16 14 12 13 14 13 13 14 14 13 13 13 13 12 13 14 15 16 15 13 14 15 12 11 11 12 12 11 11 12 12 12 14 14 14 15 17 17 17 17 18 17 17 18 19 20 23 25 24 24 24 22 18 18 19 20 20 17 14 16 18 20 21 21 22 22 23
13 12 11 8 7 9 10 10 10 12 11 11 11 10 8 9 12 14 16 16 16 15 14 13 13 13 13 13 14 14 13 13 14 15 15 17 18 17 19 19 15 13 12 10 10 13 13 11 9 10 13 14 13 13 13 14 15 18 19 20 20 19 17 16 18 19 20 22 23 21 21 22 21 18 17 18 18 16 12 13 16 19 20 20 22 23 24 25
14 13 12 10 7 7 9 10 9 9 11 11 11 10 9 10 13 17 17 17 18 17 16 15 14 14 14 14 15 15 15 15 16 18 19 20 22 20 19 21 19 17 15 12 12 14 15 15 14 13 15 16 13 10 12 14 18 22 23 22 20 17 15 14 14 14 16 17 17 16 17 19 19 17 15 16 16 14 12 14 16 19 21 23 24 24 25 25
14 13 13 11 8 8 9 9 8 7 9 11 12 12 13 14 16 18 16 15 16 15 14 14 15 16 17 17 17 17 17 18 19 21 21 21 21 21 20 21 21 21 20 17 16 18 18 19 18 13 12 14 12 9 13 16 16 16 12 8 7 7 9 11 12 12 14 16 16 17 17 18 18 16 14 14 15 14 14 16 19 22 24 25 24 24 24 23
Wind_Direction
15 11 8 6 5 3 359 357 356 353 350 342 341 337 324 315 308 303 303 304 305 306 304 300 301 302 302 303 305 305 296 279 267 266 262 267 270 258 231 217 220 219 204 186 173 172 174 167 162 141 120 112 105 133 182 216 212 203 209 227 244 249 251 254 261 272 278 278 274 288 300 298 297 303 300 296 330 325 260 266 263 260 248 244 252 244 233 237
12 9 7 4 3 2 358 356 354 353 350 342 337 332 322 312 306 302 301 302 302 302 299 298 300 301 304 305 308 309 279 207 190 235 253 251 253 232 179 183 190 192 177 161 161 165 182 207 208 176 140 127 113 116 117 134 213 214 220 236 254 267 261 255 262 277 283 285 284 286 292 296 297 306 304 300 360 56 345 347 323 245 213 247 262 238 232 227
8 7 5 2 2 1 359 356 353 353 348 342 335 328 320 311 306 303 302 303 301 299 298 300 303 305 308 309 322 14 124 107 94 127 213 221 219 155 135 148 158 163 158 144 139 142 176 218 211 166 137 128 118 128 128 111 214 220 235 249 274 304 292 274 270 275 279 283 286 283 286 295 297 298 296 295 346 67 40 30 24 20 159 240 322 230 247 223
3 3 2 360 359 358 358 355 352 351 346 341 335 328 320 313 309 306 305 305 301 301 305 307 310 312 310 306 312 142 138 80 51 83 140 113 88 94 113 132 145 145 143 130 121 117 115 125 118 108 107 111 109 100 102 86 251 233 242 263 305 312 294 293 280 276 281 284 289 289 285 290 295 291 290 297 264 92 35 30 41 25 64 77 31 51 315 241
359 359 358 358 356 354 354 352 349 345 341 338 334 328 319 314 310 308 309 305 304 307 312 314 315 313 308 302 286 154 155 66 40 66 92 73 63 74 105 124 135 136 131 119 115 116 112 108 99 87 89 108 119 91 15 328 302 264 251 274 301 285 270 286 282 278 284 285 289 293 289 288 293 290 281 292 271 261 14 21 51 20 22 34 18 15 13 36
357 356 355 355 355 353 349 348 346 341 338 336 333 327 319 314 309 307 309 305 308 313 317 319 318 312 306 301 305 29 155 86 26 39 82 62 58 79 103 119 131 138 137 133 127 125 124 125 116 92 85 118 182 284 322 330 306 270 258 274 280 266 264 274 278 281 286 287 287 289 289 287 288 289 279 271 277 292 339 14 53 15 8 13 30 52 42 110
357 355 354 353 353 350 348 346 343 339 338 336 332 328 320 314 308 308 310 308 314 314 320 322 318 311 304 309 329 16 93 62 360 24 75 57 60 87 113 121 135 148 148 149 143 138 132 131 141 157 201 256 265 279 340 333 322 265 252 267 258 249 256 264 274 282 289 288 288 289 288 285 284 289 281 266 267 284 305 343 42 30 23 11 16 98 102 124
2 357 354 353 352 349 348 346 343 340 338 336 333 328 320 314 307 308 310 311 317 316 325 323 318 307 300 341 356 13 27 21 10 29 53 54 69 78 111 121 155 166 161 160 159 160 148 149 192 198 205 229 244 247 326 282 305 253 243 260 252 246 252 256 267 279 287 282 284 288 286 285 286 291 284 268 264 275 293 329 33 28 49 50 59 98 130 131
6 3 358 355 353 350 348 346 344 341 339 337 333 329 319 313 306 308 315 315 320 321 329 326 313 290 299 16 10 11 15 40 52 38 31 43 78 75 83 93 152 177 184 182 171 167 150 177 207 206 211 219 229 233 298 281 286 298 269 274 269 263 262 257 261 271 280 281 284 284 282 289 289 286 283 269 262 270 286 296 338 25 75 94 100 133 168 169
7 6 3 359 356 352 349 347 346 343 341 339 335 330 317 310 304 309 319 321 325 328 333 327 292 263 330 36 33 18 10 26 53 50 41 29 68 93 106 107 146 179 211 195 178 169 154 187 210 211 205 211 216 215 253 280 311 327 294 284 276 269 266 261 264 269 277 288 290 281 279 293 294 279 274 272 264 270 282 270 266 348 74 91 111 159 197 158
4 5 4 2 360 356 352 348 347 345 343 341 339 331 317 308 304 312 328 328 332 333 333 320 275 252 207 70 44 16 6 14 27 48 100 130 125 138 139 122 116 120 186 189 190 199 184 191 211 213 202 210 205 196 221 240 338 344 317 302 286 274 271 268 273 275 279 291 297 289 284 285 287 279 270 274 278 279 284 262 254 252 107 61 45 47 43 92
0 2 2 1 1 360 357 352 349 347 346 345 343 332 316 305 303 314 328 328 334 335 338 313 251 241 221 147 42 15 16 11 4 30 90 154 173 172 154 105 73 61 89 216 266 304 251 202 216 210 196 199 194 195 215 204 242 300 313 322 326 313 307 315 315 295 268 280 303 298 292 293 290 290 284 284 294 290 186 233 248 235 176 86 329 318 328 356
355 357 359 360 360 359 359 357 353 351 349 349 346 334 316 304 303 312 325 336 343 349 17 95 182 224 238 181 30 14 28 19 1 34 54 135 190 172 149 111 82 76 105 222 286 333 342 244 221 202 187 186 198 202 198 137 212 256 286 300 314 324 330 354 347 324 256 263 305 299 296 319 318 306 301 277 271 268 181 216 262 227 177 108 141 205 18 74
350 352 354 356 358 358 359 358 356 354 352 352 348 335 317 303 304 311 330 349 356 41 96 107 129 288 283 359 17 9 27 32 21 29 32 11 290 206 189 167 124 96 101 124 312 344 343 298 231 201 192 208 208 168 79 116 209 294 299 291 299 311 324 350 346 335 273 242 292 308 296 319 329 330 338 232 238 294 275 262 260 238 231 229 151 124 47 71
345 347 349 352 354 356 357 357 357 356 354 352 347 335 316 303 305 311 338 1 24 84 111 16 34 18 359 360 1 358 16 24 3 359 10 358 297 229 241 189 142 108 99 98 87 56 30 355 158 186 197 215 205 137 9 360 339 325 308 300 303 301 313 336 341 336 322 249 279 301 294 310 330 13 33 64 243 301 280 259 252 258 255 259 283 315 347 36
341 343 345 347 350 352 354 356 356 356 355 349 338 322 300 283 277 268 280 340 40 59 294 311 349 23 23 19 3 352 6 8 334 340 357 347 288 238 282 244 150 131 117 108 101 76 60 94 110 122 150 156 232 303 325 331 341 330 299 297 310 307 307 317 318 319 311 270 275 282 285 299 332 68 56 35 282 280 283 280 274 270 254 251 271 289 302 308
338 340 341 343 346 348 351 353 354 355 353 344 329 317 304 284 270 252 231 225 211 211 235 258 307 24 35 23 12 352 348 336 319 332 335 325 299 254 259 254 232 170 135 123 117 96 76 112 125 111 166 185 240 284 295 300 316 324 309 303 310 309 313 317 312 308 295 271 271 274 275 277 275 314 323 311 291 278 291 294 268 259 254 252 258 261 265 262
336 337 338 340 342 344 347 349 351 352 351 342 329 326 316 293 282 268 254 247 232 228 230 233 272 338 105 19 8 338 324 316 309 318 312 307 306 241 219 226 221 178 147 148 133 108 78 133 226 299 293 251 267 273 270 278 305 325 326 323 317 305 303 303 307 311 291 273 269 272 277 279 291 292 282 296 289 273 281 267 240 239 246 241 237 239 239 242
333 335 336 337 338 341 343 346 348 348 349 341 334 335 324 301 292 278 272 272 248 232 230 225 245 251 194 2 346 307 296 294 296 308 303 297 313 126 114 123 177 175 174 196 189 336 301 289 268 271 281 290 309 283 269 291 322 320 320 320 315 306 296 283 298 315 290 271 272 273 275 274 281 287 283 294 294 267 255 238 222 220 227 223 221 229 232 236
329 331 332 334 336 338 339 341 344 344 346 341 335 335 324 307 293 276 275 279 267 245 234 234 242 236 211 260 305 283 275 276 285 296 299 39 91 91 58 59 149 190 190 191 320 308 295 283 264 251 246 298 328 334 298 302 311 306 303 303 301 300 293 277 291 310 301 279 273 273 272 261 269 281 280 286 292 258 222 214 210 212 221 224 224 226 228 233
327 327 329 331 333 336 337 338 339 340 344 342 338 336 327 323 315 304 298 278 264 260 243 236 247 244 225 302 321 275 277 283 278 258 227 127 94 14 298 253 260 233 224 271 299 298 286 277 265 244 252 303 289 299 290 281 296 306 296 292 297 300 299 294 293 297 301 292 268 262 265 259 267 270 262 267 279 270 228 216 220 221 217 215 218 222 223 227
324 325 326 328 330 333 335 336 337 337 342 344 343 339 332 332 329 322 318 315 272 265 257 234 238 246 194 45 29 307 302 309 281 237 226 198 216 286 280 262 256 245 251 272 281 289 279 274 272 258 262 276 265 274 282 281 293 305 294 287 288 290 294 292 285 284 290 293 283 269 260 258 267 264 259 263 272 276 259 236 229 222 213 208 211 215 218 224
323 323 325 327 328 330 332 334 334 335 340 342 342 338 333 333 329 324 315 317 324 263 268 252 221 200 134 287 323 321 317 315 273 241 232 212 240 273 285 281 267 255 255 256 266 282 283 284 288 276 265 255 251 266 276 281 287 296 301 293 283 282 288 284 283 285 282 287 299 284 261 252 260 276 278 271 270 271 261 240 223 215 211 209 208 208 216 225
322 322 324 325 327 328 329 332 331 333 338 338 340 338 337 335 328 328 315 312 322 272 274 265 192 182 183 256 284 304 327 313 268 259 252 237 245 263 284 289 279 268 250 236 254 278 291 293 285 275 248 229 239 264 272 277 285 295 309 319 293 280 287 287 296 301 286 278 287 286 272 254 256 269 272 264 260 251 237 226 218 213 215 217 217 220 226 234
322 321 322 324 326 326 327 330 330 332 337 337 339 337 335 333 327 328 319 311 320 279 258 216 185 197 208 231 243 257 309 314 260 247 252 245 249 266 287 288 279 266 241 240 275 289 298 293 253 255 233 228 250 263 261 275 284 285 292 337 356 318 301 301 307 306 294 288 283 277 276 260 249 245 239 237 224 212 212 217 217 214 216 222 227 234 242 252
322 321 322 323 324 325 324 328 329 330 335 335 336 333 328 328 327 327 318 315 329 267 217 204 195 207 236 233 251 269 298 319 266 244 250 252 262 276 292 295 274 242 225 263 307 304 294 286 275 273 273 285 286 256 248 267 281 279 269 273 297 315 316 309 310 311 296 290 293 274 257 248 242 238 246 250 217 199 201 211 219 223 225 230 238 247 255 259
318 319 321 322 323 325 322 324 328 329 332 332 330 327 323 327 329 329 324 323 353 83 185 200 205 224 272 264 292 296 304 330 303 265 257 260 272 275 285 293 254 220 220 284 307 305 298 293 282 265 270 287 275 233 238 260 268 276 278 275 286 305 315 311 307 304 289 285 290 276 252 248 251 245 250 244 210 196 199 207 216 225 232 239 245 253 257 259
313 314 318 320 321 324 321 322 325 325 327 328 328 325 325 336 333 325 342 3 14 23 167 192 211 246 274 272 311 335 332 327 309 276 272 292 294 283 289 285 236 226 229 270 289 290 306 298 281 262 281 273 241 235 251 261 259 265 283 285 286 294 302 305 302 290 282 280 277 268 247 246 256 234 217 210 200 196 202 212 219 226 234 240 245 250 253 260
310 310 313 316 318 321 320 320 320 319 321 324 326 327 334 344 333 306 341 61 5 357 324 236 243 266 274 270 305 337 333 320 310 287 300 322 315 289 320 321 248 238 238 264 284 280 278 284 281 282 284 271 262 265 262 261 262 266 277 284 287 293 296 297 294 284 275 268 270 265 235 222 256 231 212 205 206 206 210 219 226 232 235 237 240 245 252 261
308 308 309 310 312 315 315 314 315 315 317 320 325 331 339 342 322 296 46 86 7 9 322 257 302 290 285 288 305 323 329 314 293 286 299 320 317 277 290 313 269 246 251 265 277 274 267 263 264 273 274 271 284 287 267 257 262 272 277 279 279 289 293 286 282 281 276 264 269 260 230 224 246 244 232 223 222 222 221 221 222 228 235 237 240 247 258 268
306 306 305 307 308 308 308 310 311 313 315 320 326 330 335 331 289 178 104 319 343 29 175 111 27 314 285 288 293 299 312 294 264 274 290 304 306 279 271 283 271 261 270 265 270 282 274 261 259 258 256 269 284 293 274 250 258 277 280 275 275 282 288 277 274 277 257 269 277 252 224 225 226 243 245 237 234 234 232 229 227 229 235 240 247 255 263 270
307 305 304 307 307 305 308 311 311 313 316 320 324 323 325 322 253 205 355 343 358 100 98 312 291 273 280 294 297 288 282 267 253 270 286 289 294 285 275 280 278 273 273 270 296 305 286 266 263 251 247 268 282 289 278 233 243 260 258 280 291 292 309 281 271 279 233 243 276 254 231 232 242 255 252 241 235 231 230 232 232 234 238 244 249 255 261 268
304 302 301 304 306 307 314 318 316 317 319 319 321 321 322 323 186 17 1 1 357 327 308 297 284 281 288 296 305 287 271 274 273 280 285 283 287 284 281 288 278 265 264 272 301 317 288 260 267 263 253 257 269 271 259 237 234 245 259 302 315 257 56 290 266 304 257 256 298 290 251 244 257 256 237 230 230 226 229 232 233 237 242 247 254 258 265 272
303 300 296 294 297 305 313 318 322 324 326 324 323 324 323 307 199 3 1 359 340 321 300 297 304 301 293 283 282 282 275 281 288 287 285 288 293 283 286 306 285 249 247 267 293 324 307 271 277 300 272 238 257 271 272 272 270 269 269 278 271 213 175 232 239 249 261 279 301 285 225 233 257 229 211 212 215 216 221 225 228 233 239 250 261 267 272 277
312 306 301 290 284 295 306 308 318 324 321 321 320 324 329 310 262 328 339 332 330 327 320 319 314 306 302 278 267 265 256 267 283 272 284 299 309 303 293 308 271 223 233 259 284 277 275 266 211 177 180 240 281 280 271 268 267 266 256 229 216 236 232 245 260 269 272 292 298 244 206 236 237 213 200 200 207 209 208 213 223 230 241 255 265 271 274 281
326 317 313 306 288 291 294 277 287 298 297 302 309 320 336 319 281 297 311 311 316 327 333 335 312 295 329 25 260 226 222 248 260 263 305 312 310 323 305 226 187 218 249 265 270 233 245 249 214 193 204 283 306 279 257 255 254 246 239 229 235 275 273 261 268 284 284 302 270 214 194 203 199 197 196 195 204 211 211 217 222 224 236 254 266 270 274 282
340 330 325 334 324 273 259 253 263 279 287 298 309 317 316 292 289 294 295 294 307 330 339 339 317 297 322 324 265 227 209 217 228 267 323 324 310 358 24 295 245 262 284 291 269 247 260 266 249 232 242 273 316 259 242 248 261 257 248 241 242 262 268 251 254 318 335 303 251 217 194 188 184 191 203 202 208 217 221 226 229 232 238 250 265 268 272 282
346 344 337 348 10 216 248 260 270 287 300 311 318 320 300 264 306 307 292 290 314 337 346 336 312 287 300 304 272 270 270 262 268 284 317 330 307 315 345 347 317 284 314 329 292 263 290 292 284 262 252 257 248 218 242 257 262 249 243 257 258 248 247 230 224 308 305 270 282 249 217 208 211 223 227 222 224 228 232 236 239 241 244 257 269 266 270 281
346 346 339 340 330 273 273 283 289 302 310 316 322 324 304 295 307 295 287 288 306 341 8 324 291 275 282 298 286 285 290 280 280 279 281 323 310 294 309 320 302 298 327 330 313 311 319 309 302 283 259 255 227 214 261 276 263 245 239 251 259 251 250 240 232 240 227 237 269 272 259 230 233 252 262 252 244 240 240 242 243 241 246 264 276 270 272 281
343 342 335 333 326 311 303 298 296 309 321 328 325 313 304 301 297 292 295 291 287 308 325 273 279 279 279 288 289 290 290 280 277 267 244 259 314 310 314 302 284 306 323 317 311 312 307 286 278 280 281 278 250 220 296 302 290 275 252 229 226 252 250 249 259 261 245 228 206 189 259 255 257 278 283 264 253 249 246 244 241 241 252 270 278 274 277 283
340 341 332 320 313 310 305 298 296 305 316 324 310 295 293 286 284 291 298 298 292 287 272 260 270 278 277 279 285 293 290 280 276 265 243 242 296 312 334 325 300 301 307 306 310 316 310 284 272 277 282 278 261 254 290 296 285 266 236 209 227 259 253 251 265 264 251 240 240 222 260 276 283 289 280 261 248 245 245 243 244 250 260 267 271 274 281 288
342 344 333 313 304 307 317 326 332 324 316 309 295 290 291 291 294 296 294 295 292 281 274 267 263 263 262 266 277 287 287 278 276 269 247 240 256 289 338 327 309 306 308 306 312 323 326 303 280 279 281 276 269 271 287 289 242 211 212 212 240 263 261 239 223 270 285 276 277 275 257 281 294 292 268 254 245 236 237 242 248 254 259 262 269 278 285 290
350 346 332 310 297 13 11 5 8 16 339 309 298 293 292 297 303 304 301 299 291 277 270 266 262 258 253 267 278 279 280 278 274 266 244 233 232 226 256 263 275 321 331 319 315 320 324 309 284 286 293 290 279 268 270 262 218 212 218 216 239 270 288 273 252 275 291 283 281 282 248 282 296 285 249 244 242 238 238 245 250 253 257 266 274 280 285 290
0 1 335 295 286 176 44 341 288 219 293 292 290 288 287 294 301 303 304 304 295 281 272 279 289 283 270 275 283 278 279 275 256 246 240 234 231 227 223 224 237 308 320 303 299 295 298 297 288 298 315 319 310 245 228 223 209 215 234 240 270 289 301 295 281 269 267 272 275 257 245 285 296 260 237 237 233 236 241 243 247 253 261 270 275 279 283 289
3 22 27 300 290 230 201 286 284 273 276 283 291 290 290 299 305 307 312 310 305 299 294 299 300 285 268 261 266 272 275 271 259 252 252 250 245 237 229 228 241 271 271 267 276 280 282 282 281 286 292 296 289 260 247 254 258 270 282 287 295 287 268 278 280 257 238 258 261 246 255 278 282 255 249 248 236 235 243 246 249 260 269 272 273 276 283 290
355 12 30 318 280 248 219 240 274 280 277 278 288 290 290 304 311 312 315 311 305 304 304 302 294 280 269 260 258 264 268 268 269 267 264 262 257 249 244 242 245 259 271 278 285 286 283 276 273 273 265 264 277 279 276 281 284 285 286 286 283 269 271 285 275 257 257 263 260 263 273 279 278 269 259 252 239 233 242 256 264 271 274 272 272 278 285 292
349 355 3 353 307 270 245 242 251 274 286 288 291 294 297 304 307 306 307 305 300 300 304 300 289 285 283 273 264 262 261 263 268 271 271 270 265 259 254 253 256 261 268 276 280 280 277 272 269 270 272 279 292 294 288 286 286 286 286 285 275 263 283 290 276 264 268 263 261 279 289 286 286 283 270 258 247 242 250 263 271 274 272 270 274 281 287 291
345 350 353 351 347 326 285 260 251 264 289 298 299 306 309 306 304 302 302 304 303 303 305 300 288 286 287 280 270 265 266 270 271 270 272 274 274 272 266 262 264 265 266 270 272 265 259 265 268 272 277 281 286 289 284 278 279 279 279 281 280 280 287 284 276 274 270 258 263 286 293 287 289 290 282 273 268 268 272 271 268 265 265 271 279 285 288 289
336 345 350 347 345 336 319 293 265 264 280 292 297 307 314 308 300 296 295 299 302 303 303 297 287 284 283 277 274 275 275 275 273 274 277 280 285 290 289 282 273 267 266 267 262 249 248 260 265 266 272 272 272 276 273 270 278 281 278 278 280 283 285 280 276 279 274 268 275 286 285 282 285 285 281 278 279 282 278 259 251 258 266 275 283 287 287 285
328 338 349 352 347 335 327 315 288 267 263 273 284 288 293 296 294 290 292 296 298 297 296 293 288 284 281 278 277 277 275 273 275 281 286 286 288 294 295 290 284 273 265 264 264 259 260 262 252 253 270 273 270 272 268 265 277 281 274 269 272 277 279 275 274 278 276 275 281 281 276 279 285 284 275 270 274 278 261 238 248 262 270 278 284 285 284 285
322 332 346 356 356 340 334 328 308 276 256 261 270 269 272 286 291 292 297 300 296 292 290 290 290 286 284 284 282 280 279 277 277 280 283 284 286 288 286 283 285 283 274 270 278 279 276 272 265 267 279 280 276 278 276 273 280 282 275 269 269 273 276 275 278 282 279 277 279 278 276 285 293 290 276 265 267 268 248 235 248 261 270 277 280 282 285 289
318 328 341 353 355 342 340 337 314 279 254 256 262 266 274 282 287 291 296 295 290 288 287 287 289 290 290 290 285 282 282 280 278 279 280 281 283 285 282 280 280 280 277 275 279 281 279 279 276 271 273 279 281 286 293 294 294 289 282 269 268 278 287 290 290 287 281 278 277 279 285 293 295 289 278 269 263 253 239 241 256 268 275 278 280 284 288 293
Height
3150 3149 3148 3147 3146 3145 3144 3143 3142 3141 3141 3140 3139 3138 3138 3137 3136 3135 3135 3134 3134 3133 3133 3132 3131 3131 3130 3130 3130 3129 3129 3129 3128 3128 3128 3127 3127 3127 3127 3127 3127 3127 3128 3128 3129 3129 3130 3130 3130 3131 3131 3132 3133 3134 3135 3136 3137 3137 3138 3138 3139 3139 3139 3140 3141 3141 3141 3141 3141 3140 3140 3139 3137 3136 3137 3138 3138 3136 3137 3136 3135 3135 3134 3134 3133 3132 3136 3140
3151 3149 3148 3147 3146 3145 3144 3143 3142 3141 3140 3139 3139 3138 3137 3136 3136 3135 3134 3134 3133 3133 3132 3131 3131 3130 3130 3130 3129 3129 3129 3128 3128 3128 3127 3127 3127 3126 3126 3126 3126 3127 3127 3128 3128 3129 3130 3130 3131 3131 3131 3132 3133 3134 3135 3136 3136 3137 3138 3138 3137 3137 3137 3138 3139 3139 3140 3140 3140 3139 3138 3138 3138 3136 3137 3138 3137 3135 3134 3134 3134 3134 3132 3132 3130 3128 3132 3137
3151 3150 3148 3147 3146 3145 3144 3143 3142 3141 3140 3139 3138 3138 3137 3136 3135 3134 3134 3133 3132 3132 3131 3131 3130 3130 3129 3129 3129 3129 3128 3128 3128 3127 3127 3126 3126 3126 3126 3126 3126 3126 3127 3127 3128 3129 3130 3130 3130 3131 3131 3131 3132 3133 3134 3135 3136 3137 3137 3136 3136 3136 3137 3137 3138 3139 3139 3139 3138 3137 3136 3137 3137 3137 3137 3137 3137 3136 3135 3136 3135 3133 3131 3130 3129 3127 3130 3135
3151 3150 3149 3147 3146 3145 3144 3143 3142 3141 3140 3139 3138 3137 3136 3135 3135 3134 3133 3133 3132 3131 3131 3130 3130 3129 3129 3128 3128 3128 3128 3128 3127 3127 3126 3126 3125 3125 3125 3125 3126 3126 3127 3127 3128 3129 3130 3130 3130 3131 3131 3131 3132 3133 3134 3135 3135 3136 3135 3135 3135 3136 3136 3137 3137 3138 3137 3137 3137 3136 3135 3135 3136 3137 3136 3136 3136 3136 3135 3135 3135 3133 3131 3131 3130 3130 3131 3134
3151 3150 3148 3147 3146 3145 3144 3142 3141 3140 3139 3139 3138 3137 3136 3135 3134 3133 3133 3132 3131 3131 3130 3130 3129 3128 3128 3128 3128 3128 3127 3128 3127 3126 3125 3125 3125 3125 3125 3125 3125 3126 3127 3127 3128 3129 3130 3130 3131 3131 3131 3131 3132 3133 3134 3135 3135 3134 3134 3134 3135 3135 3136 3136 3136 3136 3136 3135 3135 3135 3134 3133 3134 3135 3135 3135 3135 3135 3135 3135 3134 3132 3131 3131 3130 3131 3131 3132
3151 3149 3148 3147 3146 3144 3143 3142 3141 3140 3139 3138 3137 3136 3135 3134 3133 3133 3132 3131 3131 3130 3130 3129 3128 3128 3127 3127 3127 3127 3127 3127 3127 3126 3125 3124 3125 3125 3125 3125 3125 3126 3127 3128 3128 3129 3129 3130 3130 3130 3131 3131 3132 3133 3133 3134 3133 3133 3133 3134 3134 3135 3135 3135 3135 3134 3134 3134 3133 3133 3132 3132 3132 3132 3133 3134 3134 3134 3135 3135 3133 3131 3130 3129 3129 3129 3129 3131
3151 3149 3148 3147 3145 3144 3143 3142 3141 3139 3138 3138 3137 3136 3135 3134 3133 3132 3132 3131 3130 3130 3129 3128 3128 3127 3127 3126 3126 3127 3127 3127 3127 3125 3124 3124 3125 3125 3125 3125 3126 3126 3127 3127 3128 3128 3128 3128 3128 3128 3129 3130 3131 3132 3133 3133 3132 3132 3133 3134 3133 3134 3134 3133 3133 3132 3132 3132 3132 3131 3131 3131 3130 3130 3131 3133 3133 3133 3134 3134 3133 3131 3129 3128 3128 3128 3129 3133
3151 3149 3148 3146 3145 3144 3142 3141 3140 3139 3138 3137 3136 3135 3134 3133 3132 3131 3131 3130 3130 3129 3128 3128 3127 3127 3126 3126 3126 3127 3127 3127 3126 3125 3124 3124 3125 3125 3125 3126 3126 3126 3126 3127 3128 3127 3127 3127 3128 3127 3128 3129 3130 3131 3132 3132 3132 3132 3132 3132 3132 3132 3131 3131 3131 3131 3131 3131 3130 3130 3129 3129 3129 3128 3128 3130 3132 3132 3133 3133 3132 3131 3129 3128 3128 3129 3131 3133
3151 3149 3148 3146 3145 3143 3142 3141 3139 3138 3137 3136 3135 3134 3133 3132 3131 3131 3131 3130 3129 3129 3128 3127 3127 3126 3126 3127 3126 3126 3126 3126 3125 3124 3124 3125 3125 3125 3125 3126 3126 3126 3127 3127 3127 3126 3126 3126 3127 3127 3128 3129 3129 3130 3130 3130 3131 3131 3130 3130 3130 3130 3129 3130 3130 3130 3130 3130 3130 3129 3128 3128 3128 3127 3126 3128 3130 3130 3131 3131 3130 3130 3130 3129 3130 3131 3132 3133
3151 3149 3148 3146 3145 3143 3142 3140 3139 3138 3137 3136 3135 3134 3133 3132 3131 3131 3130 3130 3129 3128 3128 3127 3127 3126 3126 3126 3126 3126 3125 3124 3124 3124 3124 3125 3125 3125 3126 3126 3126 3126 3127 3126 3126 3125 3125 3126 3126 3127 3127 3128 3128 3129 3129 3129 3129 3129 3129 3129 3129 3129 3129 3129 3129 3129 3129 3129 3128 3128 3127 3127 3127 3125 3124 3126 3128 3129 3129 3128 3128 3129 3130 3130 3130 3131 3132 3133
3151 3149 3148 3146 3145 3143 3141 3140 3138 3137 3136 3135 3134 3133 3132 3131 3130 3130 3130 3129 3128 3128 3127 3127 3126 3126 3126 3126 3126 3126 3124 3123 3123 3124 3125 3125 3126 3126 3126 3126 3126 3126 3126 3126 3126 3125 3125 3125 3126 3126 3127 3128 3128 3128 3128 3128 3129 3129 3128 3128 3129 3129 3128 3128 3128 3128 3128 3127 3127 3126 3126 3125 3125 3124 3123 3125 3126 3127 3126 3125 3125 3127 3130 3131 3129 3130 3131 3132
3151 3149 3148 3146 3144 3143 3141 3139 3138 3137 3136 3135 3134 3133 3132 3131 3130 3130 3129 3129 3128 3127 3127 3126 3126 3126 3126 3126 3126 3125 3124 3123 3123 3123 3124 3125 3125 3125 3125 3125 3125 3125 3126 3126 3126 3126 3126 3126 3126 3126 3127 3127 3128 3128 3128 3128 3129 3129 3128 3128 3128 3128 3127 3127 3126 3126 3126 3126 3126 3126 3124 3123 3123 3123 3123 3123 3124 3124 3124 3124 3124 3125 3129 3131 3130 3129 3129 3131
3151 3149 3148 3146 3144 3143 3141 3139 3138 3136 3135 3134 3133 3132 3131 3130 3130 3129 3129 3128 3127 3127 3126 3126 3126 3125 3125 3125 3125 3124 3123 3122 3122 3122 3123 3124 3124 3124 3124 3124 3124 3125 3126 3126 3126 3126 3126 3126 3126 3126 3127 3128 3128 3128 3128 3128 3128 3128 3128 3128 3127 3127 3126 3126 3125 3125 3124 3125 3125 3125 3123 3122 3122 3122 3121 3122 3122 3122 3123 3124 3125 3126 3128 3129 3129 3129 3128 3129
3150 3149 3147 3146 3144 3142 3141 3139 3137 3136 3135 3134 3133 3132 3131 3130 3129 3129 3128 3128 3127 3126 3126 3125 3125 3125 3125 3125 3125 3124 3122 3122 3122 3123 3123 3124 3123 3123 3123 3123 3123 3124 3125 3126 3126 3126 3126 3126 3126 3127 3127 3128 3129 3129 3128 3128 3128 3128 3128 3127 3127 3126 3125 3125 3124 3124 3123 3124 3125 3125 3123 3122 3122 3121 3119 3120 3120 3121 3122 3124 3126 3127 3127 3125 3126 3128 3128 3128
3149 3148 3147 3145 3144 3142 3141 3139 3137 3136 3135 3133 3132 3131 3131 3130 3129 3128 3128 3127 3127 3126 3126 3125 3125 3125 3125 3125 3124 3123 3122 3122 3123 3123 3123 3123 3123 3123 3123 3123 3123 3124 3125 3125 3126 3126 3126 3126 3127 3127 3128 3128 3129 3129 3128 3128 3127 3127 3127 3126 3126 3126 3125 3124 3124 3124 3123 3124 3124 3124 3124 3123 3122 3120 3119 3120 3120 3121 3123 3124 3126 3126 3125 3123 3123 3126 3127 3127
3149 3147 3146 3145 3143 3142 3140 3139 3137 3136 3134 3133 3132 3131 3130 3129 3128 3128 3127 3127 3126 3126 3125 3125 3125 3124 3124 3124 3124 3123 3122 3122 3122 3122 3122 3123 3123 3123 3123 3123 3123 3123 3124 3124 3125 3126 3126 3127 3127 3127 3128 3128 3128 3128 3128 3127 3126 3127 3126 3125 3125 3125 3124 3124 3124 3124 3124 3124 3124 3124 3123 3123 3123 3121 3121 3121 3122 3122 3123 3124 3125 3124 3123 3123 3122 3123 3125 3126
3148 3146 3145 3144 3143 3141 3140 3138 3137 3135 3134 3132 3131 3130 3129 3128 3127 3127 3126 3126 3125 3125 3124 3124 3124 3123 3123 3123 3123 3122 3121 3121 3122 3122 3122 3122 3123 3123 3122 3122 3123 3123 3123 3124 3124 3125 3126 3127 3127 3127 3127 3127 3127 3127 3127 3126 3126 3126 3126 3126 3125 3125 3124 3124 3123 3123 3123 3123 3123 3123 3123 3123 3123 3123 3123 3123 3123 3123 3123 3124 3124 3122 3122 3123 3122 3122 3124 3124
3147 3146 3144 3143 3142 3140 3139 3138 3136 3135 3133 3132 3130 3129 3129 3128 3127 3126 3125 3124 3124 3124 3123 3123 3123 3122 3122 3122 3122 3122 3121 3121 3121 3121 3122 3121 3121 3122 3122 3122 3122 3123 3123 3123 3124 3125 3126 3126 3126 3126 3126 3126 3126 3126 3126 3125 3125 3125 3125 3125 3125 3124 3124 3123 3123 3123 3123 3123 3123 3122 3121 3122 3123 3123 3123 3123 3123 3123 3124 3123 3122 3121 3122 3123 3123 3123 3123 3124
3146 3145 3143 3142 3141 3139 3138 3137 3136 3134 3132 3131 3129 3129 3128 3127 3125 3124 3124 3123 3123 3123 3122 3122 3121 3121 3121 3121 3121 3121 3121 3121 3121 3122 3121 3120 3120 3121 3121 3122 3122 3122 3123 3123 3124 3125 3125 3125 3125 3125 3125 3126 3125 3125 3125 3125 3125 3125 3124 3124 3124 3124 3123 3123 3123 3123 3122 3122 3122 3122 3121 3120 3121 3122 3122 3122 3122 3123 3123 3122 3121 3121 3121 3122 3123 3123 3123 3124
3145 3144 3142 3141 3140 3138 3137 3136 3135 3133 3132 3130 3128 3127 3126 3125 3124 3123 3122 3122 3122 3121 3121 3120 3120 3120 3119 3119 3120 3121 3121 3121 3121 3122 3121 3120 3120 3120 3121 3121 3122 3122 3122 3123 3124 3124 3125 3124 3123 3123 3123 3124 3125 3124 3124 3125 3125 3124 3124 3123 3123 3122 3122 3122 3122 3122 3121 3121 3121 3121 3120 3120 3120 3121 3121 3121 3121 3121 3121 3120 3120 3120 3120 3121 3122 3123 3123 3123
3144 3143 3141 3140 3139 3137 3136 3135 3134 3132 3131 3129 3128 3126 3125 3124 3122 3121 3120 3120 3120 3119 3119 3119 3118 3119 3118 3118 3119 3120 3121 3120 3120 3121 3121 3120 3120 3120 3120 3120 3120 3120 3121 3122 3122 3123 3123 3122 3121 3121 3122 3123 3123 3124 3124 3124 3123 3123 3123 3122 3122 3121 3120 3120 3121 3121 3120 3119 3119 3119 3119 3120 3120 3119 3120 3119 3119 3119 3119 3119 3119 3119 3119 3120 3120 3121 3122 3121
3143 3141 3140 3139 3137 3136 3135 3133 3132 3131 3130 3129 3127 3125 3124 3123 3121 3120 3118 3118 3118 3117 3116 3117 3117 3117 3117 3117 3117 3119 3120 3119 3119 3119 3119 3119 3119 3119 3119 3120 3120 3119 3119 3120 3121 3121 3121 3120 3119 3119 3121 3122 3122 3123 3122 3122 3122 3122 3122 3121 3121 3120 3120 3119 3120 3120 3119 3118 3118 3118 3118 3119 3119 3118 3118 3118 3117 3117 3118 3119 3118 3118 3118 3118 3119 3120 3120 3120
3141 3140 3139 3138 3136 3135 3134 3132 3131 3130 3129 3128 3126 3125 3124 3122 3121 3119 3118 3116 3116 3115 3114 3115 3116 3116 3116 3116 3117 3118 3119 3118 3118 3118 3118 3118 3118 3118 3118 3119 3119 3118 3119 3119 3120 3119 3119 3118 3118 3118 3119 3120 3121 3121 3121 3121 3121 3121 3121 3120 3119 3119 3119 3119 3118 3118 3118 3117 3117 3117 3116 3117 3117 3117 3117 3116 3116 3116 3116 3116 3116 3117 3117 3118 3118 3119 3119 3118
3140 3139 3138 3137 3135 3134 3133 3131 3130 3129 3128 3127 3125 3124 3123 3121 3120 3119 3117 3115 3115 3114 3113 3114 3115 3115 3116 3116 3116 3118 3118 3118 3117 3117 3116 3117 3117 3118 3117 3118 3117 3117 3117 3119 3119 3118 3117 3117 3117 3117 3117 3119 3120 3120 3120 3120 3120 3120 3120 3119 3118 3118 3118 3118 3117 3117 3116 3116 3116 3115 3115 3115 3115 3116 3115 3115 3115 3115 3114 3114 3114 3115 3116 3117 3118 3118 3117 3117
3138 3137 3136 3135 3134 3132 3131 3130 3129 3128 3127 3125 3124 3123 3121 3120 3119 3118 3116 3114 3113 3113 3113 3113 3114 3115 3115 3115 3116 3117 3117 3117 3116 3115 3115 3116 3116 3116 3116 3116 3115 3115 3116 3117 3117 3116 3116 3116 3117 3117 3117 3117 3118 3118 3118 3118 3119 3119 3119 3119 3118 3118 3117 3117 3116 3116 3115 3115 3115 3115 3115 3114 3114 3115 3115 3114 3113 3113 3113 3113 3113 3114 3115 3116 3115 3115 3116 3116
3137 3136 3134 3134 3133 3131 3130 3129 3128 3127 3126 3125 3123 3122 3121 3120 3118 3117 3116 3114 3112 3112 3112 3113 3114 3114 3114 3115 3116 3116 3116 3116 3115 3115 3114 3115 3115 3115 3115 3114 3113 3114 3115 3116 3115 3114 3115 3115 3116 3116 3116 3116 3116 3117 3117 3117 3117 3118 3118 3117 3117 3117 3116 3116 3115 3115 3114 3114 3114 3114 3114 3113 3112 3114 3114 3113 3112 3111 3111 3112 3112 3112 3113 3114 3113 3113 3114 3114
3135 3134 3133 3132 3131 3130 3129 3128 3127 3126 3125 3124 3122 3121 3120 3119 3118 3117 3115 3114 3113 3112 3112 3113 3113 3114 3114 3115 3116 3115 3115 3115 3114 3114 3114 3114 3114 3114 3114 3113 3112 3113 3114 3114 3113 3113 3114 3114 3114 3114 3114 3115 3115 3115 3115 3115 3116 3116 3116 3116 3116 3115 3115 3115 3114 3114 3113 3113 3112 3112 3113 3112 3111 3112 3112 3110 3110 3109 3110 3110 3110 3110 3111 3111 3111 3112 3112 3112
3133 3133 3132 3130 3129 3129 3127 3127 3126 3125 3124 3123 3122 3121 3119 3118 3117 3116 3116 3115 3114 3112 3112 3113 3113 3114 3114 3115 3115 3115 3114 3114 3114 3113 3113 3114 3114 3113 3113 3112 3112 3112 3113 3114 3113 3112 3113 3113 3113 3113 3113 3114 3114 3114 3114 3114 3114 3115 3115 3115 3114 3114 3114 3114 3113 3113 3112 3112 3110 3110 3111 3110 3109 3110 3110 3109 3108 3108 3108 3108 3108 3108 3108 3109 3109 3109 3110 3110
3131 3131 3130 3129 3128 3127 3126 3125 3124 3123 3122 3121 3121 3119 3118 3117 3116 3116 3116 3116 3114 3113 3113 3113 3114 3114 3114 3114 3114 3114 3113 3113 3113 3112 3112 3113 3112 3112 3111 3111 3111 3112 3112 3113 3112 3111 3112 3112 3112 3112 3112 3113 3113 3113 3113 3113 3114 3113 3114 3114 3113 3113 3113 3112 3112 3111 3111 3110 3108 3108 3109 3109 3107 3107 3109 3108 3107 3107 3106 3107 3107 3107 3107 3107 3106 3107 3107 3108
3129 3128 3128 3128 3126 3125 3124 3123 3122 3122 3121 3120 3119 3118 3117 3116 3116 3116 3116 3116 3114 3113 3113 3113 3114 3114 3113 3113 3113 3112 3112 3112 3112 3111 3111 3111 3111 3111 3111 3111 3110 3111 3111 3111 3111 3110 3110 3110 3111 3111 3111 3111 3111 3112 3111 3112 3112 3112 3112 3112 3112 3112 3111 3111 3110 3110 3110 3108 3106 3105 3106 3107 3106 3105 3105 3106 3105 3105 3105 3105 3105 3105 3105 3105 3104 3105 3105 3106
3127 3126 3125 3125 3124 3124 3123 3121 3120 3120 3119 3118 3118 3117 3116 3116 3115 3116 3116 3115 3113 3113 3114 3113 3114 3113 3113 3113 3112 3111 3111 3111 3111 3111 3110 3110 3110 3110 3110 3110 3110 3110 3110 3109 3109 3109 3109 3109 3109 3109 3110 3110 3110 3110 3110 3110 3110 3110 3110 3110 3110 3110 3110 3109 3109 3108 3109 3108 3105 3104 3104 3105 3104 3101 3102 3103 3103 3103 3103 3103 3103 3103 3103 3103 3102 3103 3104 3105
3125 3124 3123 3123 3122 3121 3121 3120 3118 3118 3117 3117 3116 3116 3116 3115 3115 3115 3115 3113 3113 3113 3113 3113 3113 3113 3113 3112 3111 3110 3110 3110 3110 3110 3110 3109 3109 3109 3109 3109 3109 3109 3108 3108 3108 3108 3107 3108 3108 3108 3109 3109 3108 3109 3109 3109 3109 3109 3109 3109 3109 3109 3109 3109 3108 3108 3108 3106 3105 3104 3104 3103 3101 3099 3100 3101 3101 3102 3102 3102 3103 3103 3102 3102 3101 3102 3103 3104
3123 3122 3122 3121 3120 3120 3119 3118 3117 3116 3116 3115 3115 3115 3115 3115 3114 3114 3113 3113 3113 3113 3112 3112 3112 3112 3112 3111 3110 3110 3109 3109 3109 3109 3109 3109 3108 3108 3107 3107 3107 3107 3107 3107 3107 3106 3106 3106 3107 3107 3107 3107 3107 3108 3108 3108 3108 3108 3108 3108 3109 3109 3110 3110 3109 3108 3107 3105 3104 3104 3103 3101 3099 3098 3099 3099 3100 3101 3101 3101 3102 3102 3102 3101 3100 3101 3102 3103
3121 3120 3119 3119 3118 3118 3118 3116 3116 3115 3115 3115 3114 3114 3114 3114 3113 3113 3113 3112 3112 3112 3112 3111 3110 3110 3110 3109 3109 3109 3109 3109 3109 3108 3108 3108 3107 3106 3107 3106 3104 3105 3107 3107 3106 3106 3106 3106 3106 3106 3106 3106 3107 3107 3106 3106 3107 3107 3107 3107 3107 3107 3109 3109 3108 3106 3105 3103 3102 3103 3102 3100 3098 3097 3097 3098 3098 3099 3099 3100 3100 3100 3100 3100 3099 3099 3100 3101
3119 3117 3117 3116 3116 3116 3116 3115 3114 3114 3114 3114 3113 3113 3113 3112 3112 3112 3112 3112 3111 3111 3110 3110 3109 3108 3108 3108 3108 3108 3108 3108 3108 3107 3107 3107 3106 3106 3106 3105 3103 3104 3106 3105 3105 3105 3106 3105 3105 3105 3105 3105 3106 3106 3105 3105 3105 3105 3105 3106 3105 3105 3106 3106 3105 3104 3103 3102 3101 3100 3100 3098 3097 3097 3096 3096 3096 3096 3097 3098 3098 3098 3099 3099 3098 3097 3097 3098
3117 3115 3114 3113 3114 3114 3114 3113 3113 3113 3113 3113 3112 3112 3112 3112 3112 3112 3111 3111 3110 3110 3109 3109 3109 3108 3107 3107 3107 3106 3106 3107 3107 3106 3106 3106 3106 3105 3105 3104 3104 3104 3104 3104 3104 3104 3104 3105 3104 3104 3104 3104 3104 3104 3104 3104 3104 3104 3104 3104 3104 3104 3104 3104 3104 3103 3103 3103 3101 3098 3098 3097 3097 3097 3096 3096 3095 3095 3096 3096 3095 3096 3096 3097 3097 3096 3096 3096
3116 3114 3113 3112 3112 3113 3112 3112 3112 3111 3111 3112 3111 3111 3111 3111 3111 3111 3110 3110 3110 3109 3108 3108 3108 3107 3107 3106 3106 3105 3105 3106 3105 3105 3105 3105 3105 3105 3104 3104 3103 3103 3103 3103 3103 3103 3103 3103 3103 3104 3103 3103 3103 3102 3103 3103 3103 3103 3103 3103 3103 3103 3103 3103 3103 3102 3103 3103 3100 3097 3097 3096 3096 3096 3095 3095 3095 3094 3094 3094 3093 3093 3094 3096 3096 3096 3095 3094
3115 3113 3112 3111 3112 3112 3111 3111 3110 3110 3110 3110 3110 3110 3110 3110 3110 3110 3109 3109 3109 3108 3108 3108 3107 3107 3106 3105 3105 3104 3104 3105 3105 3105 3105 3104 3104 3104 3104 3103 3103 3102 3102 3102 3102 3102 3101 3101 3101 3101 3101 3101 3102 3102 3102 3102 3102 3102 3101 3101 3101 3101 3101 3101 3102 3102 3102 3103 3100 3096 3096 3095 3094 3094 3094 3093 3093 3093 3092 3092 3092 3092 3093 3094 3094 3094 3094 3093
3114 3112 3111 3110 3110 3110 3110 3109 3109 3109 3109 3109 3109 3109 3109 3109 3109 3108 3108 3107 3107 3107 3107 3107 3106 3106 3106 3105 3104 3104 3104 3104 3104 3104 3104 3104 3104 3103 3103 3103 3102 3102 3102 3101 3100 3100 3100 3100 3099 3099 3100 3101 3101 3101 3102 3101 3101 3101 3101 3100 3100 3100 3100 3100 3101 3100 3100 3101 3099 3097 3095 3093 3092 3092 3092 3092 3091 3091 3091 3090 3090 3091 3092 3092 3092 3092 3092 3092
3112 3111 3110 3109 3109 3108 3108 3108 3108 3108 3109 3108 3109 3108 3108 3108 3108 3107 3107 3106 3106 3106 3106 3106 3105 3105 3104 3104 3104 3103 3103 3103 3103 3103 3103 3103 3103 3102 3103 3103 3102 3101 3100 3099 3099 3099 3099 3099 3098 3097 3099 3100 3100 3100 3100 3100 3100 3100 3099 3099 3099 3099 3099 3099 3099 3098 3098 3098 3098 3097 3095 3091 3090 3091 3090 3090 3090 3090 3089 3089 3090 3090 3090 3091 3091 3090 3090 3090
3111 3110 3109 3108 3108 3108 3108 3108 3108 3108 3108 3108 3107 3107 3107 3107 3107 3107 3106 3106 3106 3105 3104 3104 3104 3104 3103 3103 3103 3102 3102 3102 3102 3102 3102 3102 3101 3101 3102 3102 3101 3100 3098 3097 3098 3098 3098 3098 3096 3096 3096 3097 3098 3099 3098 3098 3098 3098 3098 3098 3097 3098 3098 3098 3098 3097 3096 3096 3095 3096 3093 3088 3088 3089 3088 3088 3088 3088 3088 3089 3089 3089 3089 3089 3089 3089 3088 3087
3110 3108 3108 3107 3107 3107 3107 3107 3107 3107 3107 3107 3106 3106 3106 3106 3106 3106 3105 3105 3105 3104 3103 3103 3103 3103 3103 3102 3102 3101 3100 3100 3100 3100 3101 3100 3100 3100 3100 3100 3099 3098 3097 3096 3096 3096 3097 3096 3095 3095 3095 3095 3096 3096 3096 3096 3096 3096 3096 3096 3096 3096 3096 3097 3097 3095 3095 3094 3094 3094 3091 3086 3086 3087 3086 3086 3087 3087 3087 3088 3087 3087 3087 3087 3087 3086 3085 3084
3109 3108 3107 3106 3106 3106 3106 3106 3106 3106 3106 3106 3106 3106 3106 3105 3104 3104 3104 3104 3103 3102 3102 3102 3102 3101 3101 3100 3100 3099 3099 3099 3099 3099 3099 3098 3098 3098 3098 3097 3097 3096 3096 3096 3095 3095 3095 3094 3094 3094 3093 3093 3093 3093 3093 3094 3095 3095 3095 3095 3095 3095 3095 3095 3095 3094 3094 3093 3092 3092 3089 3085 3085 3085 3085 3085 3085 3085 3086 3085 3085 3085 3085 3085 3084 3083 3083 3082
3108 3107 3107 3107 3106 3105 3105 3105 3105 3105 3105 3105 3105 3104 3104 3104 3103 3102 3102 3102 3102 3101 3101 3101 3100 3100 3099 3099 3099 3098 3097 3098 3098 3097 3097 3097 3097 3096 3096 3095 3096 3095 3095 3095 3095 3094 3094 3094 3093 3093 3093 3092 3092 3092 3092 3092 3093 3093 3093 3094 3094 3094 3094 3093 3093 3093 3092 3090 3090 3090 3087 3085 3085 3085 3084 3084 3083 3083 3083 3083 3083 3083 3083 3082 3081 3080 3080 3079
3107 3107 3106 3106 3106 3105 3104 3104 3104 3104 3104 3104 3103 3103 3103 3103 3102 3101 3101 3100 3100 3099 3099 3099 3099 3098 3098 3097 3097 3097 3096 3097 3096 3095 3095 3095 3095 3095 3094 3094 3095 3094 3093 3093 3093 3093 3093 3093 3092 3092 3093 3093 3093 3092 3091 3091 3091 3090 3091 3092 3092 3092 3092 3092 3091 3091 3090 3088 3088 3087 3085 3084 3085 3084 3083 3082 3082 3081 3081 3081 3082 3081 3081 3080 3079 3078 3077 3077
3106 3106 3106 3105 3104 3104 3104 3104 3104 3103 3103 3103 3102 3102 3102 3102 3101 3101 3100 3099 3098 3098 3098 3097 3097 3096 3096 3096 3096 3095 3095 3095 3094 3094 3094 3093 3093 3093 3093 3093 3093 3092 3092 3091 3092 3091 3091 3091 3091 3091 3091 3092 3091 3090 3090 3089 3089 3088 3088 3089 3090 3090 3090 3090 3089 3088 3087 3086 3084 3083 3082 3082 3082 3082 3081 3081 3080 3080 3079 3080 3080 3079 3078 3077 3076 3075 3075 3074
3105 3104 3104 3104 3103 3103 3104 3104 3103 3103 3102 3102 3102 3101 3101 3101 3100 3099 3099 3098 3097 3096 3096 3096 3095 3095 3094 3094 3094 3094 3093 3093 3093 3092 3092 3091 3091 3091 3091 3091 3091 3090 3090 3090 3090 3090 3089 3089 3089 3089 3089 3089 3089 3088 3088 3088 3087 3086 3086 3086 3086 3087 3086 3086 3085 3084 3085 3084 3080 3079 3080 3079 3078 3078 3078 3078 3078 3077 3077 3077 3077 3077 3076 3074 3074 3073 3072 3071
3104 3104 3103 3103 3103 3103 3103 3103 3102 3102 3102 3101 3101 3100 3100 3099 3099 3098 3097 3097 3096 3095 3095 3095 3093 3093 3093 3093 3092 3092 3091 3091 3091 3090 3090 3089 3089 3089 3089 3089 3089 3088 3088 3088 3088 3088 3087 3087 3087 3087 3087 3087 3087 3086 3086 3086 3085 3085 3085 3084 3084 3084 3083 3082 3081 3081 3081 3080 3077 3077 3078 3076 3075 3076 3075 3075 3075 3074 3074 3074 3074 3073 3073 3072 3072 3071 3069 3068
3103 3103 3103 3102 3102 3102 3101 3101 3100 3100 3100 3100 3100 3099 3099 3098 3097 3097 3096 3096 3095 3094 3093 3093 3092 3091 3091 3091 3091 3090 3090 3089 3089 3088 3088 3088 3088 3087 3087 3087 3087 3087 3086 3086 3086 3086 3086 3085 3086 3086 3085 3085 3085 3085 3085 3084 3083 3082 3082 3082 3081 3080 3080 3079 3078 3078 3078 3075 3074 3075 3074 3073 3073 3073 3072 3072 3071 3070 3070 3070 3070 3070 3070 3070 3069 3068 3067 3066
3102 3102 3102 3102 3101 3101 3100 3099 3098 3098 3099 3099 3099 3098 3097 3097 3096 3095 3095 3094 3093 3092 3092 3091 3091 3090 3090 3090 3089 3089 3088 3088 3087 3087 3087 3086 3086 3086 3085 3084 3084 3085 3085 3085 3084 3084 3084 3084 3084 3084 3083 3082 3083 3083 3083 3082 3081 3079 3078 3078 3078 3077 3077 3076 3076 3076 3075 3073 3072 3072 3071 3070 3070 3070 3069 3068 3068 3067 3066 3067 3068 3068 3067 3067 3067 3066 3065 3064
3101 3101 3101 3100 3100 3100 3099 3098 3097 3097 3097 3097 3097 3096 3096 3095 3094 3094 3093 3093 3091 3090 3090 3089 3089 3089 3089 3088 3088 3087 3087 3086 3086 3085 3085 3084 3083 3084 3084 3082 3082 3082 3082 3083 3083 3083 3083 3082 3082 3082 3081 3079 3080 3081 3080 3080 3078 3076 3074 3074 3074 3075 3074 3074 3073 3073 3072 3071 3070 3070 3069 3068 3067 3067 3066 3066 3065 3064 3064 3065 3066 3065 3065 3065 3064 3063 3062 3061
3100 3099 3099 3099 3099 3098 3098 3097 3096 3095 3095 3095 3095 3094 3094 3094 3093 3092 3092 3091 3090 3089 3088 3088 3087 3087 3087 3086 3086 3085 3084 3084 3084 3083 3083 3082 3081 3081 3081 3080 3080 3080 3079 3080 3080 3080 3081 3080 3080 3081 3079 3077 3078 3079 3078 3077 3076 3073 3071 3071 3071 3072 3072 3071 3071 3071 3070 3070 3069 3067 3067 3066 3065 3064 3064 3064 3063 3063 3063 3063 3064 3063 3063 3062 3061 3060 3059 3058